Tracking 19570 objects as of 21-Feb-2019
HD Live streaming from Space Station
objects crossing your sky now

PSLV DEB

Track PSLV DEB now!
10-day predictions


NORAD ID: 31403
Int'l Code: 1996-017D
Perigee: 586.4 km
Apogee: 608.9 km
Inclination: 98.3 °
Period: 96.5 minutes
Semi major axis: 6968 km
RCS: 0.0053 m2 (small)
Launch date: March 21, 1996
Source: India (IND)
Launch site: SRIHARIKOTA (SRI)

Note: This is SATELLITE DEBRIS
aabbcc
Your satellite tracking list
Your tracking list is empty




NASA's NSSDC Master Catalog

Two Line Element Set (TLE):
1 31403U 96017D   19051.58391546 +.00005630 +00000-0 +55489-3 0  9999
2 31403 098.3279 087.8513 0016151 205.4953 312.8296 14.92377040200230
Source of the keplerian elements: AFSPC